Location: Les Chemineaux
(47.3024°N, 1.5104°E)
Time: 20:08:02
(UTC+00:00)

USA 234 - Pass Details

Date: 19 May 2025
Orbit: 1097 x 1111 km, 123.0° (Epoch: 19 June)

Event Time Altitude Azimuth Distance (km) Brightness Sun altitude
Rises 22:32:16 0° 57° (ENE) 3,922 6.3 -20.5°
Reaches altitude 10° 22:34:48 10° 52° (NE) 2,965 5.7 -20.6°
Maximum altitude 22:41:05 51° 339° (NNW) 1,361 4.1 -20.9°
Drops below altitude 10° 22:47:22 10° 266° (W) 2,968 5.7 -21.2°
Sets 22:49:55 0° 262° (W) 3,927 6.3 -21.3°
